Flag for Argentina Weather past 2 weeks in Formosa, Formosa, Argentina

Now
77 °F

Passing clouds.


Feels Like: 78 °F
Forecast: 70 / 77 °F
Wind: 9 mph from Northeast

Location: Formosa Aerodrome

Current Time: May 23, 2015 at 12:47:23 AM

Latest Report: May 23, 2015 at 12:00 AM


Visibility: N/A

Pressure: 29.83 "Hg

Humidity: 83%

Dew point: 72 °F

Location of FormosaLocation

Historic Weather in Formosa — Graph

°F

Formosa temperature yesterday

Maximum temperature yesterday: 77 °F (at 11:00 AM)
Minimum temperature yesterday: 68 °F (at 4:00 AM)
Average temperature yesterday: 73 °F

Past Weeks' High & Low Weather Summary

 TemperatureHumidityPressure
High84 °F (May 19, 3:00 PM)100% (May 8, 4:00 AM)30.18 "Hg (May 8, 4:00 AM)
Low55 °F (May 12, 2:00 AM)57% (May 13, 2:00 PM)29.83 "Hg (May 22, 7:00 PM)
Average70 °F87%30.03 "Hg
* Reported May 7 11:00 PM — May 22 11:00 PM, Formosa, Weather by CustomWeather, © 2015

Note: Actual official high and low records may vary slightly from our data, if they occured in-between our weather recording intervals... More about our weather records

Advertising

Formosa weather history for previous 24 hours

 ConditionsComfort  
Time TempWeatherWind HumidityBarometerVisibility
11:00 PM
Fri, May 22
75 °FPassing clouds.20 mph89%29.83 "HgN/A
10:00 PM75 °FPassing clouds.14 mph83%29.83 "HgN/A
9:00 PM72 °FPassing clouds.10 mph94%29.83 "HgN/A
8:00 PM72 °FClear.8 mph94%29.83 "HgN/A
7:00 PM72 °FPassing clouds.10 mph94%29.83 "HgN/A
6:00 PM73 °FLight rain. Passing clouds.10 mph94%29.86 "HgN/A
5:00 PM77 °FScattered clouds.13 mph83%29.86 "HgN/A
4:00 PM77 °FPassing clouds.15 mph79%29.89 "HgN/A
3:00 PM77 °FScattered clouds.15 mph83%29.89 "HgN/A
2:00 PM75 °FScattered clouds.12 mph89%29.92 "HgN/A
1:00 PM72 °FLight rain. Broken clouds.15 mph100%29.95 "HgN/A
12:00 PM77 °FPartly sunny.16 mph79%29.98 "HgN/A
11:00 AM77 °FPassing clouds.17 mph79%30.01 "HgN/A
10:00 AM75 °FPassing clouds.17 mph78%29.98 "HgN/A
9:00 AM72 °FSunny.6 mph94%29.98 "Hg10 mi
8:00 AM68 °FClear.2 mph94%29.98 "Hg5 mi
7:00 AM68 °FSunny.5 mph94%29.98 "Hg10 mi
6:00 AM68 °FClear.5 mph94%29.95 "Hg10 mi
5:00 AM68 °FClear.5 mph100%29.95 "Hg10 mi
4:00 AM68 °FClear.6 mph100%29.98 "Hg10 mi
3:00 AM70 °FClear.7 mph94%29.98 "Hg10 mi
2:00 AM72 °FClear.8 mph88%29.98 "Hg10 mi
1:00 AM72 °FClear.8 mph88%29.98 "Hg10 mi
12:00 AM72 °FClear.8 mph88%29.98 "Hg10 mi
Weather by CustomWeather, © 2015

See weather overviewHow to use our weather pages